Location: Newark
(30.1000°N, 109.4667°E)
Time: 00:31:17
(UTC+00:00)

Courier 1B Rocket - Pass Details

Date: 27 February 2020
Orbit: 920 x 1202 km, 28.2° (Epoch: 01 April)

Event Time Altitude Azimuth Distance (km) Brightness Sun altitude
Exits shadow 21:33:30 14° 208° (SSW) 2,491 6.8 -21.7°
Drops below altitude 10° 21:36:47 10° 179° (S) 2,835 7.4 -21.0°
Sets 21:41:05 0° 156° (SSE) 3,856 8.4 -20.1°
